When you browse on this site, cookies collect data to enhance your experience and personalize the content and advertising you see.
Visit our Privacy Policy to learn more. By continuing to use the site, you agree to this use of cookies and data.
  • En España
  • Lista de países
  • Para 7 días
  • Temperatura del agua
  • Mapa Satelital
  • El tiempo en el mapa
  • Informadores
  • user-avatar
    Iniciar sesión

    Tiempo cada hora Kashtela

    Hoy, 21 Abril, Domingo

    Tiempo Temperatura Precipitaciones Viento Presión Humedad
    00:00 +14°C° 0 mm 3 mps 765 mmHg 53%
    01:00 +14°C° 0 mm 3 mps 765 mmHg 51%
    02:00 +13°C° 0 mm 3 mps 765 mmHg 52%
    03:00 +13°C° 0 mm 3 mps 765 mmHg 52%
    04:00 +14°C° 0 mm 2 mps 765 mmHg 53%
    05:00 +14°C° 0 mm 2 mps 765 mmHg 52%
    06:00 +15°C° 0 mm 2 mps 764 mmHg 52%
    07:00 +16°C° 0 mm 3 mps 764 mmHg 48%
    08:00 +17°C° 0 mm 3 mps 764 mmHg 49%
    09:00 +18°C° 0 mm 4 mps 764 mmHg 49%
    10:00 +20°C° 0 mm 4 mps 764 mmHg 49%
    11:00 +20°C° 0 mm 4 mps 763 mmHg 50%
    12:00 +20°C° 0 mm 5 mps 763 mmHg 51%
    13:00 +21°C° 0 mm 4 mps 763 mmHg 51%
    14:00 +20°C° 0 mm 4 mps 763 mmHg 54%
    15:00 +20°C° 0 mm 4 mps 762 mmHg 57%
    16:00 +19°C° 0 mm 5 mps 762 mmHg 59%
    17:00 +18°C° 0 mm 4 mps 762 mmHg 66%
    18:00 +17°C° 0 mm 4 mps 762 mmHg 73%
    19:00 +16°C° 0 mm 3 mps 762 mmHg 80%
    20:00 +15°C° 0 mm 4 mps 762 mmHg 81%
    21:00 +14°C° 0 mm 4 mps 762 mmHg 83%
    22:00 +14°C° 0 mm 4 mps 762 mmHg 85%
    23:00 +14°C° 0 mm 4 mps 762 mmHg 86%

    Mañana, 22 Abril, Lunes

    Tiempo Temperatura Precipitaciones Viento Presión Humedad
    00:00 +14°C° 0 mm 4 mps 762 mmHg 87%
    01:00 +13°C° 0 mm 4 mps 762 mmHg 89%
    02:00 +13°C° 0 mm 4 mps 762 mmHg 88%
    03:00 +13°C° 0 mm 4 mps 761 mmHg 88%
    04:00 +13°C° 0 mm 4 mps 761 mmHg 88%
    05:00 +13°C° 0 mm 5 mps 761 mmHg 84%
    06:00 +14°C° 0 mm 5 mps 760 mmHg 81%
    07:00 +14°C° 0 mm 5 mps 760 mmHg 77%
    08:00 +15°C° 0 mm 6 mps 759 mmHg 75%
    09:00 +16°C° 0 mm 7 mps 759 mmHg 72%
    10:00 +17°C° 0 mm 8 mps 758 mmHg 69%
    11:00 +17°C° 0 mm 8 mps 758 mmHg 69%
    12:00 +18°C° 0 mm 9 mps 757 mmHg 68%
    13:00 +18°C° 0 mm 9 mps 757 mmHg 67%
    14:00 +18°C° 0 mm 10 mps 756 mmHg 67%
    15:00 +17°C° 0 mm 10 mps 756 mmHg 66%
    16:00 +17°C° 0 mm 10 mps 755 mmHg 66%
    17:00 +17°C° 0 mm 10 mps 755 mmHg 69%
    18:00 +16°C° 0 mm 11 mps 755 mmHg 72%
    19:00 +14°C° 0 mm 11 mps 754 mmHg 75%
    20:00 +14°C° 0.5 mm 11 mps 754 mmHg 78%
    21:00 +14°C° 0.5 mm 12 mps 754 mmHg 82%
    22:00 +13°C° 0.5 mm 12 mps 754 mmHg 86%
    23:00 +13°C° 0.3 mm 12 mps 754 mmHg 84%

    Pasado mañana, 23 Abril, Martes

    Tiempo Temperatura Precipitaciones Viento Presión Humedad
    00:00 +14°C° 0.3 mm 12 mps 753 mmHg 82%
    01:00 +14°C° 0.3 mm 12 mps 753 mmHg 80%
    02:00 +14°C° 0.1 mm 11 mps 753 mmHg 81%
    03:00 +14°C° 0.1 mm 11 mps 752 mmHg 82%
    04:00 +14°C° 0.1 mm 11 mps 752 mmHg 82%
    05:00 +14°C° 0.1 mm 11 mps 752 mmHg 83%
    06:00 +14°C° 0.1 mm 11 mps 752 mmHg 84%
    07:00 +14°C° 0.1 mm 11 mps 751 mmHg 84%
    08:00 +14°C° 0.1 mm 11 mps 752 mmHg 84%
    09:00 +16°C° 0.1 mm 11 mps 752 mmHg 84%
    10:00 +16°C° 0.1 mm 11 mps 752 mmHg 84%
    11:00 +16°C° 0.1 mm 11 mps 752 mmHg 84%
    12:00 +17°C° 0.1 mm 11 mps 752 mmHg 83%
    13:00 +17°C° 0.1 mm 12 mps 752 mmHg 83%
    14:00 +17°C° 0.8 mm 11 mps 752 mmHg 84%
    15:00 +17°C° 0.8 mm 10 mps 752 mmHg 85%
    16:00 +17°C° 0.8 mm 9 mps 752 mmHg 87%
    17:00 +17°C° 1.4 mm 9 mps 753 mmHg 85%
    18:00 +17°C° 1.4 mm 8 mps 753 mmHg 83%
    19:00 +17°C° 1.4 mm 7 mps 753 mmHg 82%
    20:00 +16°C° 1 mm 7 mps 754 mmHg 83%
    21:00 +16°C° 1 mm 6 mps 755 mmHg 84%
    22:00 +16°C° 1 mm 5 mps 756 mmHg 85%
    23:00 +16°C° 0.9 mm 5 mps 756 mmHg 86%

    24 Abril, Miércoles

    Tiempo Temperatura Precipitaciones Viento Presión Humedad
    00:00 +16°C° 0.9 mm 5 mps 756 mmHg 86%
    01:00 +17°C° 0.9 mm 4 mps 757 mmHg 87%
    02:00 +16°C° 0.2 mm 5 mps 757 mmHg 89%
    03:00 +15°C° 0.2 mm 5 mps 757 mmHg 90%
    04:00 +15°C° 0.2 mm 6 mps 758 mmHg 92%
    05:00 +16°C° 0.1 mm 6 mps 758 mmHg 92%
    06:00 +16°C° 0.1 mm 7 mps 759 mmHg 92%
    07:00 +16°C° 0.1 mm 8 mps 759 mmHg 92%
    08:00 +16°C° 0.1 mm 8 mps 759 mmHg 91%
    09:00 +16°C° 0.1 mm 8 mps 760 mmHg 90%
    10:00 +17°C° 0.1 mm 8 mps 760 mmHg 88%
    11:00 +18°C° 0 mm 8 mps 760 mmHg 84%
    12:00 +20°C° 0 mm 8 mps 760 mmHg 79%
    13:00 +20°C° 0 mm 7 mps 760 mmHg 75%
    14:00 +21°C° 0 mm 7 mps 760 mmHg 72%
    15:00 +21°C° 0 mm 7 mps 760 mmHg 70%
    16:00 +21°C° 0 mm 7 mps 760 mmHg 68%
    17:00 +20°C° 0 mm 6 mps 760 mmHg 71%
    18:00 +19°C° 0 mm 5 mps 760 mmHg 73%
    19:00 +17°C° 0 mm 5 mps 760 mmHg 76%
    20:00 +17°C° 0 mm 5 mps 760 mmHg 75%
    21:00 +16°C° 0 mm 5 mps 761 mmHg 74%
    22:00 +16°C° 0 mm 5 mps 761 mmHg 73%
    23:00 +16°C° 0 mm 5 mps 761 mmHg 74%

    25 Abril, Jueves

    Tiempo Temperatura Precipitaciones Viento Presión Humedad
    00:00 +16°C° 0 mm 5 mps 761 mmHg 75%
    01:00 +16°C° 0 mm 6 mps 761 mmHg 76%
    02:00 +16°C° 0 mm 6 mps 761 mmHg 77%
    03:00 +16°C° 0 mm 6 mps 760 mmHg 77%
    04:00 +16°C° 0 mm 6 mps 760 mmHg 78%
    05:00 +16°C° 0 mm 6 mps 760 mmHg 76%
    06:00 +17°C° 0 mm 6 mps 760 mmHg 74%
    07:00 +19°C° 0 mm 6 mps 760 mmHg 72%
    08:00 +20°C° 0 mm 7 mps 760 mmHg 68%
    09:00 +21°C° 0 mm 7 mps 760 mmHg 64%
    10:00 +22°C° 0 mm 7 mps 761 mmHg 59%
    11:00 +22°C° 0 mm 8 mps 760 mmHg 60%
    12:00 +22°C° 0 mm 8 mps 760 mmHg 60%
    13:00 +22°C° 0 mm 9 mps 760 mmHg 61%
    14:00 +22°C° 0 mm 9 mps 760 mmHg 62%
    15:00 +22°C° 0 mm 8 mps 759 mmHg 64%
    16:00 +22°C° 0 mm 8 mps 759 mmHg 65%
    17:00 +21°C° 0 mm 7 mps 759 mmHg 68%
    18:00 +20°C° 0 mm 6 mps 759 mmHg 70%
    19:00 +19°C° 0 mm 5 mps 759 mmHg 73%
    20:00 +17°C° 0 mm 5 mps 759 mmHg 72%
    21:00 +17°C° 0 mm 5 mps 760 mmHg 72%
    22:00 +17°C° 0 mm 5 mps 760 mmHg 71%
    23:00 +17°C° 0.1 mm 5 mps 760 mmHg 72%

    26 Abril, Viernes

    Tiempo Temperatura Precipitaciones Viento Presión Humedad
    00:00 +17°C° 0.1 mm 5 mps 760 mmHg 73%
    01:00 +17°C° 0.1 mm 5 mps 760 mmHg 74%
    02:00 +16°C° 0 mm 5 mps 759 mmHg 76%
    03:00 +16°C° 0 mm 5 mps 759 mmHg 77%
    04:00 +16°C° 0 mm 5 mps 759 mmHg 79%
    05:00 +17°C° 0 mm 6 mps 759 mmHg 79%
    06:00 +17°C° 0 mm 6 mps 759 mmHg 78%
    07:00 +19°C° 0 mm 6 mps 759 mmHg 78%
    08:00 +18°C° 0 mm 7 mps 759 mmHg 76%
    09:00 +20°C° 0 mm 7 mps 759 mmHg 75%
    10:00 +21°C° 0 mm 7 mps 759 mmHg 73%
    11:00 +21°C° 0 mm 7 mps 759 mmHg 74%
    12:00 +21°C° 0 mm 7 mps 759 mmHg 75%
    13:00 +21°C° 0 mm 7 mps 759 mmHg 76%
    14:00 +21°C° 0 mm 6 mps 758 mmHg 77%
    15:00 +21°C° 0 mm 5 mps 758 mmHg 77%
    16:00 +21°C° 0 mm 5 mps 758 mmHg 78%
    17:00 +20°C° 0 mm 4 mps 758 mmHg 82%
    18:00 +19°C° 0 mm 3 mps 758 mmHg 86%
    19:00 +18°C° 0 mm 2 mps 758 mmHg 91%
    20:00 +18°C° 0.3 mm 2 mps 758 mmHg 91%
    21:00 +17°C° 0.3 mm 2 mps 758 mmHg 91%
    22:00 +17°C° 0.3 mm 2 mps 758 mmHg 91%
    23:00 +15°C° 1.4 mm 4 mps 758 mmHg 89%
    Mostrar más